Tallevast, FL

9:48 PM EDT on September 27, 2016 (GMT -0400)
Sarasota-bradenton

Weather History for KSRQ - November, 2011

Change the Weather History Date:

Sunday, November 27, 2011

  Actual Average Record
Temperature  
Mean Temperature 73 °F 67 °F  
Max Temperature 84 °F 77 °F 86 °F (1960)
Min Temperature 61 °F 57 °F 38 °F (1962)
Degree Days  
Heating Degree Days 0 2  
Month to date heating degree days 7 22  
Since 1 July heating degree days 9 25  
Cooling Degree Days 8 4  
Month to date cooling degree days 181 145  
Year to date cooling degree days 3518 3289  
Growing Degree Days 22 (Base 50)    
Moisture  
Dew Point 58 °F    
Average Humidity 65    
Maximum Humidity 81    
Minimum Humidity 37    
Precipitation  
Precipitation 0.00 in 0.06 in 1.83 in (1918)
Month to date precipitation 0.59 1.70  
Year to date precipitation 39.96 50.25  
Sea Level Pressure  
Sea Level Pressure 30.02 in    
Wind  
Wind Speed 11 mph (ESE)    
Max Wind Speed 22 mph    
Max Gust Speed 38 mph    
Visibility 10 miles    
Events      
T = Trace of Precipitation, MM = Missing Value Source: NWS Daily Summary

Daily Weather History Graph

Daily Weather History Graph

Search for Another Location

Airport or City:

Trip Planner

Search our weather history database for the weather conditions in past years. The results will help you decide how hot, cold, wet, or windy it might be!

Date:

Astronomy

Nov. 27, 2011 Rise Set
Actual Time 6:59 AM EST 5:35 PM EST
Civil Twilight 6:34 AM EST 6:00 PM EST
Nautical Twilight 6:06 AM EST 6:29 PM EST
Astronomical Twilight 5:37 AM EST 6:57 PM EST
Moon 9:21 AM EST (11/27) 8:13 PM EST (11/27)
Length of Visible Light 11h 26m
Length of Day
10h 35m
Waxing Crescent, 8% of the Moon is Illuminated
Nov 27
Waxing Crescent
Dec 2
First Quarter
Dec 10
Full
Dec 17
Last Quarter
Dec 24
New

Hourly Weather History & Observations

Time (EST) Temp. Heat Index Dew Point Humidity Pressure Visibility Wind Dir Wind Speed Gust Speed Precip Events Conditions
12:53 AM 64.0 °F - 55.9 °F 75% 30.10 in 10.0 mi East 8.1 mph - N/A   Partly Cloudy
1:53 AM 63.0 °F - 55.9 °F 78% 30.09 in 10.0 mi East 6.9 mph - N/A   Scattered Clouds
2:53 AM 64.0 °F - 55.9 °F 75% 30.06 in 10.0 mi East 12.7 mph - N/A   Clear
3:53 AM 63.0 °F - 55.9 °F 78% 30.06 in 10.0 mi East 8.1 mph - N/A   Clear
4:53 AM 62.1 °F - 55.9 °F 80% 30.06 in 10.0 mi East 6.9 mph - N/A   Clear
5:53 AM 62.1 °F - 55.9 °F 80% 30.06 in 10.0 mi East 9.2 mph - N/A   Clear
6:53 AM 62.1 °F - 55.9 °F 80% 30.06 in 10.0 mi East 10.4 mph - N/A   Clear
7:53 AM 66.0 °F - 57.0 °F 73% 30.06 in 10.0 mi East 11.5 mph - N/A   Clear
8:53 AM 72.0 °F - 59.0 °F 64% 30.07 in 10.0 mi East 15.0 mph 38.0 mph N/A   Clear
9:53 AM 77.0 °F - 59.0 °F 54% 30.07 in 10.0 mi ESE 18.4 mph 23.0 mph N/A   Clear
10:53 AM 79.0 °F - 59.0 °F 50% 30.05 in 10.0 mi ESE 15.0 mph 25.3 mph N/A   Clear
11:53 AM 80.6 °F 80.5 °F 55.4 °F 42% 30.04 in 10.0 mi SE 18.4 mph 25.3 mph N/A   Clear
12:53 PM 82.9 °F 82.4 °F 57.0 °F 41% 30.01 in 10.0 mi SE 16.1 mph - N/A   Clear
1:53 PM 82.9 °F 81.9 °F 54.0 °F 37% 29.99 in 10.0 mi SE 16.1 mph 20.7 mph N/A   Clear
2:53 PM 82.0 °F 81.4 °F 55.0 °F 39% 29.97 in 10.0 mi SE 5.8 mph - N/A   Partly Cloudy
3:53 PM 78.1 °F - 61.0 °F 56% 29.97 in 10.0 mi SSW 9.2 mph - N/A   Partly Cloudy
4:53 PM 77.0 °F - 57.9 °F 52% 29.96 in 10.0 mi Variable 5.8 mph - N/A   Clear
5:53 PM 75.0 °F - 59.0 °F 57% 29.96 in 10.0 mi South 3.5 mph - N/A   Clear
6:53 PM 71.1 °F - 57.9 °F 63% 29.96 in 10.0 mi Calm Calm - N/A   Mostly Cloudy
7:53 PM 72.0 °F - 60.1 °F 66% 29.98 in 10.0 mi SE 10.4 mph - N/A   Mostly Cloudy
8:53 PM 71.1 °F - 61.0 °F 70% 29.98 in 10.0 mi SE 10.4 mph - N/A   Partly Cloudy
9:53 PM 68.0 °F - 62.1 °F 81% 29.98 in 10.0 mi ESE 10.4 mph - N/A   Clear
10:53 PM 69.1 °F - 63.0 °F 81% 29.96 in 10.0 mi ESE 15.0 mph - N/A   Clear
11:53 PM 68.0 °F - 64.0 °F 87% 29.95 in 10.0 mi SE 11.5 mph - N/A   Clear